Flag for Ukraine Weather past 2 weeks in Yalta, Ukraine

Now
64 °F

Passing clouds.


Feels Like: 64 °F
Forecast: 46 / 65 °F
Wind: 13 mph from West

Location: Simferopol


UV Index: 5 (Moderate)

Visibility: N/A


Pressure: 30.01 "Hg

Humidity: 56%

Dew point: 48 °F

Location of YaltaLocation

Historic Weather in Yalta

°F

Yalta temperature yesterday

Maximum temperature yesterday: 63 °F (at 2:30 PM)
Minimum temperature yesterday: 50 °F (at 10:30 PM)
Average temperature yesterday: 56 °F

Past Weeks' High & Low Weather Summary

 TemperatureHumidityPressure
High81 °F (Apr 18, 4:00 PM)100% (Apr 12, 7:00 AM)30.15 "Hg (Apr 12, 7:00 AM)
Low36 °F (Apr 7, 1:00 AM)21% (Apr 6, 5:00 PM)29.65 "Hg (Apr 18, 3:00 PM)
Average53 °F70%29.94 "Hg
* Reported Apr 6 5:00 PM — Apr 21 5:00 PM, Yalta, Weather by CustomWeather, © 2014

Note: Actual official high and low records may vary slightly from our data, if they occured in-between our weather recording intervals... More about our weather records

Advertising

Historic Weather Conditions — Data for Previous 24 hours

 ConditionsComfort  
Time TempWeatherWind HumidityBarometerVisibility
5:00 PM
Apr 21
64 °FPassing clouds.15 mph56%30.01 "HgN/A
4:30 PM64 °FPassing clouds.13 mph56%30.01 "HgN/A
4:00 PM64 °FPassing clouds.13 mph56%30.01 "HgN/A
3:30 PM64 °FScattered clouds.15 mph56%30.01 "HgN/A
3:00 PM64 °FPartly sunny.13 mph60%30.01 "HgN/A
2:30 PM64 °FPartly sunny.10 mph60%30.01 "HgN/A
2:00 PM64 °FOvercast.10 mph60%29.98 "HgN/A
1:30 PM64 °FOvercast.10 mph56%29.98 "HgN/A
1:00 PM63 °FOvercast.8 mph64%29.98 "HgN/A
12:30 PM63 °FOvercast.10 mph59%30.01 "HgN/A
12:00 PM63 °FPassing clouds.10 mph59%30.01 "HgN/A
11:30 AM61 °FPartly sunny.10 mph63%30.01 "HgN/A
11:00 AM61 °FPartly sunny.13 mph59%30.01 "HgN/A
10:30 AM59 °FPartly sunny.10 mph63%30.01 "HgN/A
10:00 AM57 °FOvercast.13 mph63%29.98 "HgN/A
9:30 AM57 °FSunny.13 mph67%29.98 "Hg10 mi
9:00 AM55 °FPassing clouds.8 mph72%29.98 "HgN/A
8:30 AM54 °FSunny.8 mph77%29.98 "Hg10 mi
8:00 AM50 °FSunny.8 mph82%29.98 "Hg10 mi
7:30 AM46 °FPassing clouds.8 mph93%29.98 "HgN/A
7:00 AM46 °FPassing clouds.10 mph87%29.95 "HgN/A
6:30 AM46 °FPassing clouds.10 mph87%29.95 "HgN/A
6:00 AM45 °FPassing clouds.10 mph93%29.95 "HgN/A
5:30 AM45 °FPassing clouds.8 mph87%29.95 "HgN/A
5:00 AM46 °FPassing clouds.6 mph82%29.95 "HgN/A
4:30 AM46 °FPassing clouds.8 mph87%29.95 "HgN/A
4:00 AM46 °FPassing clouds.8 mph87%29.95 "HgN/A
3:30 AM46 °FPassing clouds.6 mph87%29.95 "HgN/A
3:00 AM48 °FPassing clouds.6 mph82%29.95 "HgN/A
2:30 AM46 °FClear.3 mph87%29.95 "Hg10 mi
2:00 AM46 °FClear.3 mph82%29.95 "Hg10 mi
1:00 AM48 °FClear.6 mph76%29.95 "Hg10 mi
12:30 AM48 °FClear.6 mph82%29.95 "Hg10 mi
12:00 AM50 °FClear.3 mph76%29.95 "Hg10 mi
11:30 PM
Apr 20
50 °FClear.6 mph82%29.95 "Hg10 mi
11:00 PM50 °FClear.6 mph82%29.95 "Hg10 mi
10:30 PM50 °FClear.6 mph82%29.95 "Hg10 mi
10:00 PM52 °FClear.3 mph77%29.95 "Hg10 mi
9:30 PM52 °FSunny.3 mph77%29.95 "Hg10 mi
9:00 PM54 °FSunny.3 mph77%29.95 "Hg10 mi
8:30 PM55 °FSunny.6 mph72%29.95 "Hg10 mi
8:00 PM57 °FSunny.10 mph63%29.95 "Hg10 mi
7:30 PM59 °FSunny.13 mph59%29.95 "Hg10 mi
7:00 PM59 °FSunny.15 mph59%29.95 "Hg10 mi
6:30 PM61 °FSunny.15 mph55%29.95 "Hg10 mi
6:00 PM61 °FSunny.15 mph55%29.95 "Hg10 mi
Weather by CustomWeather, © 2014

See weather overview